Retour au catalogue

NOAA 16 DEB

ActifSSO
NORAD 41284·DEBRIS·🇺🇸 United States

Lancé Sep 21, 2000 depuis Vandenberg Space Force Base

Loading…

Prochains Passages (prochaines 24 heures)

TLE

FraisSource: Space-Track

Époque: Sep 14, 2026, 09:05 UTC

1 41284U 00055GL  26257.37871384  .00001848  00000-0  10773-2 0  9993
2 41284  98.8621 222.3401 0073407 209.9642 149.7316 14.08401776546758

Suivez NOAA 16 DEB en temps réel avec AllMySat

Download on the App Store